Regional Weather Roundup
Issued by NWS

Home | Current Version | Previous Version | Graphics & Text | Print | Product List | Glossary On
Versions: 1 2 3 4 5 6 7 8 9 10 11 12 13 14 15 16 17 18 19 20 21 22 23 24 25 26 27 28 29 30 31 32 33 34 35 36 37 38 39 40 41 42 43 44 45 46 47 48 49 50
178
ASUS45 KSLC 231610
RWRUT

UTAH REGIONAL WEATHER ROUNDUP
NATIONAL WEATHER SERVICE SALT LAKE CITY UT
1000 AM MDT WED MAY 23 2018

UTZ001>011-023>025-231700-

NORTHERN UTAH

CITY           SKY/WX    TMP DP  RH WIND       PRES   REMARKS
BRIGHAM CITY   MOSUNNY   62  45  54 CALM      29.98S
HILL AFB       PTSUNNY   63  43  48 S13       29.99R
LOGAN          MOSUNNY   59  48  67 NW5       29.97S
OGDEN          PTSUNNY   64  42  44 S13       29.97S
SALT LAKE CITY PTSUNNY   63  46  55 SE10      29.97S
TOOELE VALLEY  PTSUNNY   64  46  52 E5        29.98S
WENDOVER       SUNNY     62  48  60 SE3       29.96S
HEBER CITY       N/A     50  46  87 CALM      30.03S
WEST JORDAN    PTSUNNY   60  48  64 S13       30.00R

$$

UTZ011>015-024>027-231700-

CENTRAL/NORTHEAST UTAH

CITY           SKY/WX    TMP DP  RH WIND       PRES   REMARKS
PROVO AIRPORT  PTSUNNY   59  46  62 SW3       30.02R
MOAB/CANYONLAN MOSUNNY   66  43  43 CALM      30.00S
DELTA          MOSUNNY   59  39  47 W3        30.01S
PRICE          SUNNY     62  34  35 S6        30.05S
ROOSEVELT      MOSUNNY   59  41  51 E5        30.07S
VERNAL         SUNNY     59  44  57 S6        30.05S

$$

UTZ013>016-019>022-027-231700-

SOUTHERN UTAH

CITY           SKY/WX    TMP DP  RH WIND       PRES   REMARKS
BRYCE CANYON   MOSUNNY   58  36  43 NE6       30.15S
CEDAR CITY     SUNNY     68  36  30 SW10      30.03S
MILFORD        CLOUDY    63  41  44 SW10      30.01S
ST GEORGE      MOSUNNY   72  41  32 CALM      29.95S
HANKSVILLE     SUNNY     66  32  28 CALM      30.03S
BLANDING         N/A     65  27  23 SE7       30.18R

$$

REGIONAL REPORTS     COLORADO/ARIZONA

CITY           SKY/WX    TMP DP  RH WIND       PRES   REMARKS
CRAIG, CO      SUNNY     55  45  68 VRB3      30.07S
GRAND JUNCTION SUNNY     63  43  48 CALM      30.02F
RIFLE, CO      SUNNY     62  41  46 NW5       30.05F
MONTROSE, CO   PTSUNNY   56  41  57 NW9       30.09S
CORTEZ, CO     SUNNY     68  28  22 W5        30.11F
COLORADO CITY    N/A     70  37  30 SE7       30.07S
PAGE, AZ       SUNNY     68  37  32 N5        30.02S
GRAND CANYON   SUNNY     61  22  22 SE9G16    30.14R
KINGMAN, AZ      N/A     74  34  23 VRB5      29.97S
FLAGSTAFF, AZ  SUNNY     57  29  34 S5G20     30.15S

$$

REGIONAL REPORTS    NEVADA/IDAHO/WYOMING

CITY           SKY/WX    TMP DP  RH WIND       PRES   REMARKS
LAS VEGAS, NV  MOSUNNY   78  35  21 NE8       29.88R
ELY, NY        PTSUNNY   56  43  61 S9        30.04R
ELKO, NV       PTSUNNY   56  45  66 CALM      29.98S
POCATELLO, ID  CLOUDY    60  48  64 E7        29.95S
BURLEY, ID     MOSUNNY   66  50  56 S9        29.90S
FORT BRIDGER,    N/A     55  41  59 NW3       30.11S
EVANSTON, WY   SUNNY     53  41  63 SW7       30.07S
ROCK SPRINGS,  SUNNY     54  43  66 CALM      30.07S
KEMMERER, WY   SUNNY     54  39  58 S7        30.08F

$$




USA.gov is the U.S. government's official web portal to all federal, state and local government web resources and services.